Погода в Беловском

Россия / Алтайский край     52°53′39″N   84°38′21″E
темп.,
°C
ветер,
м/с
пор.,
м/с
влажн.,
%
обл.,
%
осадки,
мм/ч
давл.,
гПа
погр.,
м
19 января, ср
ср1901:00−11ю1198100 0.0 103010
04:00−14вюв1110080 0.0 10309
07:00−16всв2210097 0.0 10299
10:00−17св2210096 0.0 103020
13:00−9св24935 0.0 1028118
16:00−10ссв34935 0.0 102796
19:00−16св35977 0.0 102852
22:00−16ссв359711 0.0 102846
20 января, чт
чт2001:00−16ссв359817 0.0 102956
04:00−18с359854 0.0 103043
07:00−21с2210094 0.0 103114
10:00−21с1110094 0.0 10349
13:00−12з119351 0.0 1034104
16:00−11юв119514 0.0 103432
19:00−18вюв1110088 0.0 10369
22:00−19в1110064 0.0 10369
21 января, пт
пт2101:00−19св2210045 0.0 103613
04:00−19всв22995 0.0 103532
07:00−20всв221005 0.0 103424
10:00−18всв34965 0.0 103353
13:00−12св34895 0.0 1032142
16:00−12св25915 0.0 1031126
19:00−19св22985 0.0 103221
22:00−19св229937 0.0 103228
22 января, сб
сб2201:00−20св221007 0.0 103230
04:00−21в22995 0.0 103317
07:00−22всв11986 0.0 10349
10:00−21вюв11999 0.0 103410
13:00−13юв11905 0.0 103489
16:00−12всв11925 0.0 103429
19:00−18всв11998 0.0 10369
22:00−20всв221005 0.0 10369
23 января, вс
вс2301:00−21всв22985 0.0 103710
04:00−21всв11997 0.0 10379
07:00−21в119999 0.0 10389
10:00−20в1110055 0.0 103910
13:00−13всв11918 0.0 1038103
16:00−12св11935 0.0 103831
19:00−19всв1110040 0.0 10399
22:00−20всв111008 0.0 10409